Location: Sternwarte ZA, Rosenfeld-Brittheim
(48.2889°N, 8.6789°E)
Time: 06:03:53
(UTC+01:00)

ISS - Pass Details

Date: 01 December 2020
Orbit: 418 x 421 km, 51.6° (Epoch: 26 November)

Event Time Altitude Azimuth Distance (km) Brightness Sun altitude
Rises 19:02:07 0° 290° (WNW) 2,367 1.1 -24.0°
Reaches altitude 10° 19:04:14 10° 293° (WNW) 1,501 -0.2 -24.3°
Enters shadow 19:06:07 30° 301° (WNW) 774 -2.0 -24.6°
